This is the latest recevied weather packets stored in our database for station/object PD2BVG. If no packets are shown the sender has not sent any weather packets the latest 1 day(s).
| Time | Temp. | Humidity | Pressure | Rain* | Wind** | Luminosity | Snow |
|---|---|---|---|---|---|---|---|
| 1777967343 | 12.78° C | 81% | 1012.1 hPa | 0 mm | 2.24 m/s, 24° | 577 W/m² | - |
| 1777967282 | 12.78° C | 81% | 1012.1 hPa | 0 mm | 2.24 m/s, 41° | 543 W/m² | - |
| 1777967222 | 12.78° C | 81% | 1012.1 hPa | 0 mm | 2.24 m/s, 42° | 545 W/m² | - |
| 1777967164 | 12.78° C | 81% | 1012.1 hPa | 0 mm | 2.24 m/s, 68° | 512 W/m² | - |
| 1777967104 | 12.78° C | 81% | 1012.1 hPa | 0 mm | 2.24 m/s, 341° | 512 W/m² | - |
| 1777967044 | 12.78° C | 81% | 1012 hPa | 0 mm | 2.24 m/s, 340° | 494 W/m² | - |
| 1777966984 | 12.78° C | 82% | 1012.1 hPa | 0 mm | 1.79 m/s, 357° | 436 W/m² | - |
| 1777966922 | 12.78° C | 82% | 1012 hPa | 0 mm | 2.68 m/s, 0° | 470 W/m² | - |
| 1777966862 | 12.78° C | 81% | 1012.1 hPa | 0 mm | 3.13 m/s, 27° | 456 W/m² | - |
| 1777966802 | 12.78° C | 81% | 1012.1 hPa | 0 mm | 2.68 m/s, 4° | 320 W/m² | - |
| 1777966742 | 12.78° C | 82% | 1012.1 hPa | 0 mm | 3.58 m/s, 358° | 454 W/m² | - |
| 1777966684 | 12.78° C | 81% | 1012 hPa | 0 mm | 4.02 m/s, 338° | 454 W/m² | - |
| 1777966622 | 12.78° C | 81% | 1012.1 hPa | 0 mm | 4.02 m/s, 1° | 499 W/m² | - |
| 1777966562 | 12.22° C | 82% | 1012.1 hPa | 0 mm | 3.58 m/s, 327° | 499 W/m² | - |
| 1777966502 | 12.22° C | 81% | 1011.9 hPa | 0 mm | 3.13 m/s, 37° | 505 W/m² | - |
| 1777966441 | 12.22° C | 82% | 1011.9 hPa | 0 mm | 3.58 m/s, 0° | 457 W/m² | - |
| 1777966383 | 12.22° C | 82% | 1012.1 hPa | 0 mm | 4.02 m/s, 330° | 457 W/m² | - |
| 1777966322 | 12.22° C | 82% | 1012 hPa | 0 mm | 3.58 m/s, 345° | 454 W/m² | - |
| 1777966262 | 12.22° C | 83% | 1012.1 hPa | 0 mm | 2.68 m/s, 357° | 510 W/m² | - |
| 1777966202 | 12.22° C | 83% | 1012.1 hPa | 0 mm | 2.68 m/s, 0° | 273 W/m² | - |
| 1777966141 | 12.22° C | 83% | 1012 hPa | 0 mm | 2.68 m/s, 34° | 477 W/m² | - |
| 1777966083 | 12.22° C | 83% | 1012 hPa | 0 mm | 3.58 m/s, 0° | 366 W/m² | - |
| 1777966022 | 12.22° C | 83% | 1012 hPa | 0 mm | 3.13 m/s, 343° | 499 W/m² | - |
| 1777965962 | 12.22° C | 83% | 1012 hPa | 0 mm | 2.68 m/s, 340° | 457 W/m² | - |
| 1777965905 | 12.22° C | 83% | 1012 hPa | 0 mm | 2.68 m/s, 25° | 422 W/m² | - |
* Rain latest hour (hover to see other rain measurements)
** Current wind speed in m/s (hover to see current wind gust speed)